GW5356 Weather Reports


Display with metric or nautical units.
time (UTC)temp
F
wind
direction
speed
MPH
gust
MPH
rain 1hr
in
rain 24hr
in
rain mn
in
humidity
%
barometer
mb
20260504160117 71 75 1.0 6.0 0.00 0.00 0.00 37 1016.3
20260504150111 0 50 2.0 0.0 0.00 0.00 0.00 1017.2
20260504081556 46 65 1.0 3.0 0.00 0.00 0.00 73 1016.2
20260504080113 47 0 0.0 1.0 0.00 0.00 0.00 72 1016.1
20260504044555 49 0 0.0 1.0 0.00 0.00 0.00 67 1016.5
20260504043111 50 73 0.0 1.0 0.00 0.00 0.00 65 1016.6
20260504041557 50 0 0.0 1.0 0.00 0.00 0.00 67 1016.3
20260504040123 50 0 0.0 0.0 0.00 0.00 0.00 66 1016.1
20260504034551 50 0 0.0 0.0 0.00 0.00 0.00 65 1016.2
20260504033056 51 0 0.0 0.0 0.00 0.00 0.00 62 1016.3
20260504031559 52 0 0.0 1.0 0.00 0.00 0.00 61 1016.4
20260504030056 52 0 0.0 1.0 0.00 0.00 0.00 60 1016.5
20260504024557 53 0 0.0 1.0 0.00 0.00 0.00 57 1016.4
20260504023101 54 0 0.0 1.0 0.00 0.00 0.00 54 1016.5
20260504021554 55 0 0.0 1.0 0.00 0.00 0.00 53 1016.2
20260504020054 56 0.0 1.0 0.00 0.00 0.00 50 1016.1
20260504014601 56 128 0.0 1.0 0.00 0.00 0.00 50 1015.8
20260504013100 56 0 0.0 0.0 0.00 0.00 0.00 49 1015.4
20260504011552 56 0 0.0 0.0 0.00 0.00 0.00 49 1015.4
20260504010057 57 0 0.0 1.0 0.00 0.00 0.00 47 1015.3
20260504004553 59 0 0.0 1.0 0.00 0.00 0.00 45 1015.2
20260504003101 60 0 0.0 1.0 0.00 0.00 0.00 43 1015.1
20260504001607 61 208 0.0 1.0 0.00 0.00 0.00 41 1014.9
20260504000130 62 208 0.0 1.0 0.00 0.00 0.00 39 1014.9
20260503234556 63 141 0.0 1.0 0.00 0.00 0.00 37 1014.9
20260503233057 64 223 0.0 1.0 0.00 0.00 0.00 35 1014.7
20260503231555 64 236 0.0 1.0 0.00 0.00 0.00 33 1014.7
20260503230100 65 349 1.0 3.0 0.00 0.00 0.00 30 1014.7
20260503224554 65 28 1.0 4.0 0.00 0.00 0.00 29 1014.7
20260503223053 66 328 1.0 4.0 0.00 0.00 0.00 29 1014.9
20260503221557 65 94 1.0 4.0 0.00 0.00 0.00 28 1014.8
20260503220057 65 262 1.0 4.0 0.00 0.00 0.00 27 1015.0
20260503214553 65 346 1.0 5.0 0.00 0.00 0.00 28 1015.2
20260503213054 65 359 1.0 4.0 0.00 0.00 0.00 28 1015.4
20260503211554 65 25 1.0 8.0 0.00 0.00 0.00 28 1015.5
20260503210057 65 350 1.0 7.0 0.00 0.00 0.00 29 1015.6
20260503204553 65 73 2.0 7.0 0.00 0.00 0.00 29 1015.8
20260503203100 64 14 3.0 6.0 0.00 0.00 0.00 29 1016.0
20260503201601 64 243 1.0 5.0 0.00 0.00 0.00 29 1016.2
20260503200058 64 115 2.0 9.0 0.00 0.00 0.00 29 1016.5
20260503194600 64 101 2.0 8.0 0.00 0.00 0.00 30 1016.5
20260503193104 65 335 2.0 7.0 0.00 0.00 0.00 31 1016.8
20260503191604 65 27 3.0 8.0 0.00 0.00 0.00 29 1016.9
20260503190052 66 1.0 0.0 0.00 0.00 0.00 26 1017.1
20260503184552 66 78 0.0 1.0 0.00 0.00 0.00 27 1017.3
20260503183115 65 354 1.0 4.0 0.00 0.00 0.00 26 1017.6
20260503181619 64 117 1.0 4.0 0.00 0.00 0.00 25 1017.8
20260503180105 64 209 1.0 5.0 0.00 0.00 0.00 27 1017.9
20260503174559 62 87 0.0 7.0 0.00 0.00 0.00 29 1018.0
20260503173057 62 83 0.0 5.0 0.00 0.00 0.00 32 1018.3
20260503171557 61 86 1.0 5.0 0.00 0.00 0.00 27 1018.5